Location: College Park
(38.9810°N, 76.9370°W)
Time: 18:45:10
(UTC-05:00)

Tiangong 2 - Pass Details

Date: 11 November 2017
Orbit: 386 x 392 km, 42.8° (Epoch: 22 November)

Event Time Altitude Azimuth Distance (km) Brightness Sun altitude
Rises 17:36:28 0° 290° (WNW) 2,275 6.0 -8.1°
Reaches altitude 10° 17:38:34 10° 291° (WNW) 1,417 4.8 -8.5°
Maximum altitude 17:41:45 82° 19° (NNE) 395 1.0 -9.1°
Enters shadow 17:44:53 10° 108° (ESE) 1,387 3.4 -9.7°
